sat.trackr.live / text

‹ back to catalog

2024-110A

NORAD 60012 · 2024-110A

PAYLOAD ACTIVE UNKNOWN

§ Identity

Operator
Country
PRC
Launch date
2024-06-06
Launch site
JSC
Launch vehicle
Mass (kg)
RCS (m²)

External: N2YO · Heavens-Above · Gunter

§ Orbital elements

Epoch: 2026-09-22T23:48:28.474272Z

Period
95.40 min
Inclination
97.5682°
Eccentricity
0.0023147
Mean motion
15.09491210 rev/d
Perigee alt
521.7 km
Apogee alt
553.8 km
Semi-major
6,915.9 km
B*
2.5288e-4
RAAN
356.8076°
Arg perigee
218.8106°
Mean anomaly
141.1461°
Rev number
12,669

§ Raw data

2024-110A1 60012U 24110A   26265.99199623  .00004012  00000+0  25288-3 0  99902 60012  97.5682 356.8076 0023147 218.8106 141.1461 15.09491210126690

JSON: /api/v1/satellites/60012 · /tle

For live sub-satellite position, see the globe view (requires WebGL).

§ Visibility from observer

Set your observer location to see the next 7 days of passes ≥ 10°. The values pass through the URL so the page stays shareable.

No JS? Fill the form by hand. The geolocation button needs JavaScript.